Wind_Speed
34 36 33 28 31 38 36 34 33 33 33 31 26 24 24 23 24 25 23 21 19 18 17 17 16 17 17 17 17 16 15 15 15 15 15 14 14 13 13 13 12 12 11
34 34 31 34 34 40 36 32 33 35 33 30 26 25 25 23 25 25 24 21 19 18 18 17 16 16 16 16 16 16 15 14 14 14 14 13 12 13 12 12 11 11 10
35 33 32 34 37 40 36 31 30 32 32 30 26 27 22 22 23 24 24 23 19 18 18 18 18 17 17 16 16 15 14 14 14 14 13 12 11 10 10 10 9 10 9
34 33 33 33 38 40 38 34 33 32 31 27 28 25 22 22 23 24 23 24 23 21 19 18 17 16 16 15 15 15 14 14 14 13 12 11 10 9 9 9 9 9 9
33 35 32 32 37 39 37 35 34 32 28 27 28 26 24 22 23 22 23 23 23 22 21 19 18 17 16 16 14 15 15 14 14 13 12 12 11 11 11 11 9 10 10
38 35 33 33 36 37 37 36 36 31 28 26 23 22 21 21 21 23 23 22 22 23 23 22 20 19 18 17 16 15 15 15 14 14 15 14 15 15 15 13 13 13 13
40 34 33 33 36 37 36 34 33 33 25 26 24 13 12 17 20 21 22 22 23 23 22 22 21 21 21 19 17 17 17 17 16 16 17 18 18 18 17 17 16 16 17
31 33 32 34 36 37 37 38 34 28 21 30 13 14 3 3 13 20 22 23 23 23 23 23 23 23 23 22 22 21 21 20 19 20 21 21 22 21 20 21 21 21 21
28 31 30 29 33 36 36 38 36 31 23 30 22 8 3 3 5 14 23 22 24 24 26 26 26 27 27 27 26 27 26 25 24 23 24 25 25 24 23 24 24 24 24
26 29 31 28 31 32 33 37 38 31 29 26 24 10 12 10 3 2 9 18 23 28 29 30 32 31 30 31 31 31 30 29 29 29 29 29 31 31 32 32 31 29 28
29 31 32 35 34 34 35 34 36 35 27 29 23 21 14 14 12 4 3 5 23 33 35 35 35 35 36 36 36 35 34 33 33 33 34 34 34 35 36 37 38 38 37
30 32 29 37 33 33 32 32 36 36 32 24 33 28 23 13 8 4 0 4 13 21 30 37 40 40 39 39 38 38 37 35 35 35 36 36 38 39 39 41 42 42 43
26 32 35 31 28 29 30 33 33 35 34 30 28 33 32 31 22 23 14 8 7 19 12 21 27 35 40 41 41 41 40 38 37 36 37 37 38 40 42 43 44 44 46
23 29 32 32 29 27 32 34 31 33 32 33 29 28 32 37 32 25 18 18 4 11 18 18 23 26 30 33 35 35 38 37 37 38 38 39 39 40 42 43 45 45 45
22 26 32 32 30 31 30 31 35 37 39 34 33 29 27 27 38 40 35 28 20 8 7 22 25 32 33 33 32 30 33 33 35 37 38 41 43 43 44 45 47 46 45
16 21 27 29 29 29 30 31 32 35 41 41 38 40 36 35 30 32 35 36 33 24 10 26 30 35 32 32 34 32 34 36 39 41 42 42 44 45 45 46 45 44 41
20 19 23 28 28 30 32 33 34 34 34 32 36 38 38 37 38 42 40 40 35 31 20 33 34 34 33 35 39 41 43 43 44 44 45 46 47 47 46 47 47 45 41
19 20 21 24 28 31 32 35 35 32 33 35 37 34 36 35 39 41 36 38 36 34 28 27 32 32 35 43 44 44 46 47 47 48 48 48 48 48 46 45 44 44 41
23 24 25 25 27 30 34 37 39 40 40 42 42 39 39 40 40 36 35 34 35 33 30 28 31 33 33 35 40 44 47 45 47 47 46 48 48 46 44 42 42 42 43
23 27 31 33 34 35 36 35 34 37 37 37 38 40 39 41 43 41 38 39 37 33 30 27 29 32 33 33 35 33 32 37 41 45 48 45 43 44 42 41 42 43 44
28 28 30 32 34 36 38 38 36 36 36 36 38 40 41 44 46 48 42 41 37 33 32 33 32 32 30 30 31 36 34 36 38 39 40 40 43 42 42 41 41 41 39
28 31 33 33 32 36 35 37 40 37 37 37 38 39 41 43 49 53 54 56 52 40 36 35 36 33 37 38 37 34 34 29 16 27 34 30 30 29 29 30 31 28 29
6 5 9 20 26 31 36 39 42 44 39 38 40 41 42 42 45 47 48 54 59 60 60 52 42 40 42 41 39 37 34 34 34 26 24 17 11 11 5 3 4 12 15
10 11 13 15 16 13 17 17 26 39 44 44 43 43 42 43 44 42 41 41 44 52 58 61 56 50 41 37 30 30 30 27 17 10 14 5 12 13 14 15 12 15 14
11 11 11 14 16 17 24 23 24 23 25 38 42 40 41 45 47 47 46 41 38 31 26 29 20 15 2 21 39 39 25 12 3 2 3 5 7 14 17 16 16 15 15
11 11 14 17 19 20 27 25 22 17 19 21 17 8 13 18 35 38 31 36 36 20 19 7 11 9 9 18 14 6 3 8 8 6 13 7 5 5 5 10 12 11 8
Wind_Direction
188 189 182 183 187 178 175 172 171 172 173 174 172 174 167 167 163 158 160 162 159 164 161 163 163 161 161 161 154 152 149 148 148 147 145 147 146 146 145 143 143 141 143
178 180 182 186 188 180 180 176 173 174 174 176 171 176 170 167 169 165 166 165 169 171 169 169 171 171 170 170 163 160 157 156 157 157 156 158 160 158 159 156 154 154 156
182 183 181 182 183 183 181 179 176 174 175 176 175 178 170 172 176 175 173 171 177 181 181 179 180 179 180 177 173 166 168 167 170 171 170 172 172 172 172 170 171 171 173
194 184 181 186 182 184 183 178 171 173 177 179 185 177 176 178 184 183 183 180 184 186 192 192 190 190 189 185 180 177 179 181 184 186 183 184 187 189 192 191 188 191 195
187 184 182 185 181 183 186 181 176 176 170 181 184 180 181 183 190 190 193 193 192 195 195 200 201 201 200 196 192 190 191 195 196 197 198 200 206 208 208 207 212 217 217
186 183 188 192 183 183 187 184 180 178 179 181 179 180 183 191 195 199 201 202 204 205 204 206 208 212 213 207 204 203 207 210 209 208 213 213 217 217 217 221 229 229 227
186 188 191 191 185 183 185 183 182 180 173 172 157 150 178 201 200 209 210 212 214 218 218 216 217 220 222 223 221 218 219 221 222 224 226 225 226 224 226 231 239 238 236
175 186 193 191 189 186 189 188 184 181 173 176 155 134 135 197 218 218 218 220 223 227 229 229 228 230 232 232 233 232 230 227 229 231 233 237 236 235 234 238 243 238 241
188 195 196 193 193 194 192 189 191 183 169 179 178 152 137 190 158 210 222 226 232 233 238 238 238 237 240 241 243 242 242 240 235 234 240 247 250 254 254 252 246 243 244
192 198 197 201 201 197 200 199 195 193 185 180 184 183 180 153 162 166 213 229 240 244 243 245 246 246 246 247 249 250 251 251 251 248 249 242 246 253 257 260 260 258 255
197 202 203 203 202 201 206 202 198 201 195 188 185 194 191 174 171 151 172 205 240 245 244 245 248 251 251 251 253 255 256 257 256 256 256 255 253 252 254 258 259 256 256
193 191 193 196 196 202 208 209 206 206 211 210 205 204 197 184 182 155 162 145 224 238 245 249 247 249 252 255 257 259 260 261 262 261 261 261 261 260 260 259 256 255 254
193 201 203 201 202 207 213 217 214 214 213 222 222 213 213 214 213 206 195 199 234 263 255 250 251 252 253 256 260 261 261 262 263 264 265 265 264 264 264 262 262 258 254
206 205 203 208 211 216 221 223 227 223 225 229 226 221 223 222 219 222 225 227 233 243 240 241 252 249 255 259 259 261 263 264 265 266 268 268 268 269 269 268 266 266 265
212 215 217 213 216 215 219 219 222 226 226 223 225 234 239 245 232 229 228 231 213 236 244 256 252 259 260 261 260 267 265 266 267 268 269 270 270 271 272 274 274 273 272
202 208 210 208 212 215 210 208 210 215 217 228 236 231 234 243 250 251 247 246 231 234 254 256 258 263 263 258 258 262 266 270 271 270 270 273 273 271 271 273 273 271 269
216 206 208 213 217 219 222 221 218 219 219 225 227 225 231 239 243 246 246 246 243 238 240 257 259 263 256 256 260 263 267 269 271 271 271 275 276 273 274 275 275 273 267
219 214 210 216 217 222 225 222 223 225 224 226 230 230 230 234 237 239 241 240 239 241 237 252 259 259 260 266 266 267 270 270 271 273 274 277 275 274 275 274 274 273 264
226 223 221 221 225 230 230 232 230 230 230 234 236 233 233 235 238 238 238 240 244 246 242 242 252 257 260 265 267 269 268 267 271 272 274 277 274 274 274 273 273 269 261
240 236 235 237 239 242 241 236 233 232 232 233 234 235 235 236 240 242 241 243 246 245 244 238 245 254 259 262 263 261 265 267 267 271 274 272 273 273 272 270 269 266 262
247 247 247 246 249 252 250 241 236 235 236 237 238 240 240 241 245 248 246 247 245 243 244 248 252 254 254 256 252 260 257 260 258 259 260 264 269 269 271 269 268 266 264
248 249 247 246 245 249 247 246 244 240 242 244 246 247 249 250 251 252 249 249 246 243 242 245 250 251 253 254 257 249 248 253 262 257 251 250 250 247 251 255 260 261 261
332 331 277 257 251 249 253 253 252 246 243 243 245 249 252 252 252 252 254 254 253 251 249 251 253 252 257 252 253 251 249 245 253 255 243 224 226 193 180 98 190 197 181
347 335 330 319 305 312 316 304 268 256 247 246 247 248 249 253 252 251 252 250 249 252 252 251 251 259 263 261 251 252 254 246 219 213 196 142 144 111 106 102 103 110 113
13 11 6 5 1 351 349 332 311 295 268 253 250 250 249 251 253 253 251 251 252 247 242 238 236 235 251 268 259 254 254 208 166 81 96 128 126 111 110 107 91 94 105
33 42 45 38 30 20 13 6 355 333 306 294 289 271 276 274 251 251 262 250 248 223 207 163 138 123 75 78 84 92 144 130 94 61 25 26 63 106 94 63 53 57 65
Height
778 783 787 792 798 802 808 811 814 819 824 829 832 836 838 842 846 847 851 855 857 861 863 866 869 869 871 873 873 874 875 877 879 881 882 884 885 886 888 888 889 890 892
775 781 786 790 797 801 807 812 814 818 824 830 832 837 840 842 846 848 852 855 858 861 864 866 869 871 872 874 873 874 876 879 881 882 882 884 886 886 887 888 889 891 893
774 779 784 789 794 800 807 812 817 819 825 830 832 837 839 843 847 850 852 854 859 862 864 866 868 870 872 873 874 874 877 879 881 882 882 884 885 887 888 888 889 890 892
772 777 781 787 792 800 807 812 815 821 824 829 834 834 838 842 848 850 853 854 857 861 864 867 869 871 873 873 874 875 877 879 881 882 882 884 885 886 887 888 888 889 890
769 774 779 786 792 800 807 812 815 821 822 829 832 833 837 841 846 850 853 855 856 860 862 865 867 870 873 875 874 875 876 878 880 881 882 882 884 885 886 887 887 888 889
765 770 777 785 791 799 805 810 815 820 822 827 831 834 839 843 847 849 853 856 857 859 861 863 866 868 871 872 874 875 876 877 878 878 880 880 881 882 883 884 885 886 886
759 769 776 783 787 795 802 808 815 819 823 826 831 838 842 845 846 850 853 856 857 860 861 861 863 866 868 870 871 872 874 876 876 876 878 877 879 879 880 881 882 883 884
760 768 775 782 787 794 801 807 811 817 820 824 827 835 844 847 847 848 851 853 856 858 859 860 861 864 866 867 867 868 870 872 872 873 874 874 875 876 876 877 878 878 879
761 767 774 780 785 791 796 802 808 813 814 820 824 827 838 840 843 844 847 849 853 854 856 857 858 860 862 863 863 864 865 867 867 869 870 870 871 871 872 872 873 873 875
763 767 772 778 785 789 794 799 806 811 812 816 822 823 825 828 836 843 843 845 849 850 851 852 853 855 857 858 858 858 860 860 862 863 864 865 866 866 866 867 867 868 868
760 765 770 776 782 787 793 797 801 807 811 813 815 820 823 826 828 832 837 839 843 843 844 844 847 849 850 851 852 852 852 853 855 856 857 857 858 860 860 859 860 860 859
756 762 767 770 777 783 788 793 798 803 807 811 813 816 819 823 825 827 831 831 838 837 836 837 839 841 843 843 844 843 845 846 847 848 848 849 850 850 850 851 851 851 851
754 759 763 769 773 779 785 791 795 798 802 806 809 813 816 818 820 823 826 829 831 830 831 830 831 833 835 835 834 835 836 837 838 839 839 839 840 840 840 841 841 842 842
753 757 760 765 770 776 781 786 791 794 799 803 806 810 813 813 816 819 820 826 829 827 828 825 825 826 827 827 827 828 828 828 829 829 829 829 829 829 830 830 831 830 831
751 754 757 761 767 771 776 780 785 790 796 799 802 805 808 810 811 812 815 816 819 822 820 817 818 818 819 820 820 820 820 820 820 821 820 820 820 820 819 819 819 819 819
749 752 756 760 765 770 773 777 780 784 788 792 795 799 802 805 808 808 808 810 812 812 812 811 810 809 811 813 813 813 812 812 813 812 811 811 810 810 809 808 807 807 808
747 749 752 757 763 767 771 773 776 779 782 784 789 791 794 797 800 802 801 803 804 805 805 800 802 802 803 802 802 801 801 801 800 801 800 799 798 796 796 796 795 795 795
746 749 751 754 758 762 766 770 773 775 777 780 782 785 787 791 791 792 794 793 794 794 796 794 793 793 792 789 790 790 789 787 787 787 786 785 784 783 783 782 780 781 783
740 745 749 752 754 757 760 762 764 767 770 772 774 777 780 783 781 783 784 784 784 785 786 786 784 784 782 781 779 778 775 774 773 774 774 772 771 771 771 770 769 769 771
735 739 742 745 748 751 753 756 758 760 762 763 765 766 770 771 770 773 773 773 774 776 777 776 775 773 772 772 770 769 765 764 760 761 759 758 758 757 758 757 756 756 757
732 734 736 738 740 742 744 747 750 752 753 755 757 757 758 758 758 759 762 762 764 765 766 765 763 761 761 761 757 756 752 750 747 748 746 744 745 745 745 746 747 747 748
727 728 729 731 733 733 736 738 741 743 744 746 746 746 746 747 746 744 745 746 749 751 752 751 747 747 745 744 745 744 742 741 734 736 736 734 734 734 734 735 736 737 740
724 725 725 727 727 728 729 729 731 732 732 733 733 734 734 734 733 732 732 733 735 737 737 737 734 733 730 730 732 730 730 729 725 725 727 726 728 728 730 733 730 731 730
724 724 724 723 723 723 721 721 720 721 720 720 720 721 722 720 720 721 721 721 720 720 720 720 720 720 715 714 716 716 715 716 713 715 717 720 722 729 730 729 729 730 732
725 724 724 723 723 722 718 715 713 712 712 709 710 711 709 706 706 708 710 709 709 710 706 706 708 708 705 702 702 705 707 710 712 715 716 716 722 726 729 731 734 734 732
728 727 726 727 726 723 719 714 710 707 706 706 706 702 700 695 694 697 698 697 695 697 698 700 703 704 704 702 699 703 703 703 709 715 718 728 727 722 732 738 742 743 741